www.pogodaiklimat.ru

Погода и климат >> Архив погоды >> Австралия >> Северная территория >> Пойнт Стьюарт


ПОГОДА в Пойнт Стьюарт

  • Прогноз погоды в Пойнт Стьюарт
  • Монитор погоды в Пойнт Стьюарт

АРХИВ ПОГОДЫ в Пойнт Стьюарт

Время (UTC), дата Ветер
(напр.,м/с)
 
Видим.   Явления Облачность Т
(С)
Тd
(С)
f
(%)
Тe
(С)
Тes
(С)
Комфортность P
(гПа)
Po
(гПа)
Тmin
(С)
Tmax
(С)
R
(мм)
R24
(мм)
S
(см)
05 13.03 С 3 н/о н/о +33.1 +25.4 64 +48 +48 опасность
перегрева
1007.0 1006.8
08 13.03 С 2 н/о н/о +31.2 +26.2 75 +47 +47 опасность
перегрева
1006.8 1006.6
11 13.03 С 3 н/о н/о +28.7 +26.9 90 +45 +45 опасность
перегрева
1008.6 1008.4
14 13.03 С 3 н/о н/о +28.4 +26.2 88 +43 +43 опасность
перегрева
1009.9 1009.7 +34.4
17 13.03 С 3 н/о н/о +28.1 +26.3 90 +43 +43 опасность
перегрева
1008.5 1008.3
20 13.03 С 2 н/о н/о +26.6 +26.4 99 +40 +40 очень
душно
1009.1 1008.9
23 13.03 С 4 н/о н/о +29.6 +27.0 86 +47 +47 опасность
перегрева
1011.2 1011.0
02 14.03 С 5 н/о н/о +31.8 +27.7 79 +51 +51 опасность
перегрева
1009.9 1009.7 +26.3
05 14.03 СВ 3 н/о н/о +33.3 +26.3 67 +50 +50 опасность
перегрева
1006.4 1006.2
08 14.03 С 2 н/о н/о +31.4 +26.0 73 +47 +47 опасность
перегрева
1006.4 1006.2
11 14.03 С 3 н/о н/о +29.1 +26.7 87 +45 +45 опасность
перегрева
1008.1 1007.9
14 14.03 С 2 н/о н/о +28.7 +26.5 88 +44 +44 опасность
перегрева
1008.8 1008.6 +33.6
17 14.03 С 2 н/о н/о +27.8 +25.4 87 +41 +41 опасность
перегрева
1007.3 1007.1
20 14.03 штиль 0 н/о н/о +26.1 +26.1 100 +39 +39 очень
душно
1007.8 1007.6
23 14.03 С 1 н/о н/о +30.4 +27.4 84 +49 +49 опасность
перегрева
1009.6 1009.4
02 15.03 С 3 н/о н/о +32.2 +25.8 69 +47 +47 опасность
перегрева
1009.2 1009.0 +26.1
05 15.03 С 3 н/о н/о +33.1 +25.4 64 +48 +48 опасность
перегрева
1006.6 1006.4
08 15.03 С 3 н/о н/о +30.3 +25.6 76 +45 +45 опасность
перегрева
1006.2 1006.0
11 15.03 С 1 н/о н/о +27.5 +25.5 89 +40 +40 очень
душно
1008.8 1008.6
14 15.03 С 3 н/о н/о +28.0 +25.4 86 +41 +41 опасность
перегрева
1009.1 1008.9 +33.8
17 15.03 СЗ 2 н/о н/о +25.7 +25.4 98 +37 +37 очень
душно
1007.3 1007.1
20 15.03 СЗ 2 н/о н/о +25.4 +25.4 100 +37 +37 очень
душно
1007.6 1007.4
23 15.03 СЗ 4 н/о н/о +28.9 +26.7 88 +45 +45 опасность
перегрева
1009.8 1009.6
02 16.03 СЗ 5 н/о н/о +32.1 +25.2 67 +46 +46 опасность
перегрева
1009.0 1008.8 +25.2
05 16.03 СЗ 4 н/о н/о +34.3 +24.2 56 +47 +47 опасность
перегрева
1006.3 1006.1
08 16.03 С 2 н/о н/о +30.6 +24.0 68 +42 +42 опасность
перегрева
1006.5 1006.3
11 16.03 штиль 0 н/о н/о +28.1 +26.3 90 +43 +43 опасность
перегрева
1009.9 1009.7
14 16.03 С 2 н/о н/о +26.8 +26.6 99 +41 +41 опасность
перегрева
1009.6 1009.4 +34.4
17 16.03 С 2 н/о н/о +26.2 +26.0 99 +39 +39 очень
душно
1008.7 1008.5
20 16.03 С 2 н/о н/о +25.8 +25.8 100 +38 +38 очень
душно
1008.7 1008.5
23 16.03 С 2 н/о н/о +30.0 +26.4 81 +46 +46 опасность
перегрева
1009.9 1009.7
02 17.03 СЗ 5 н/о н/о +32.1 +25.9 70 +48 +48 опасность
перегрева
1009.5 1009.3 +25.4
05 17.03 СЗ 3 н/о н/о +33.8 +23.2 54 +44 +44 опасность
перегрева
1006.3 1006.1
08 17.03 СЗ 4 н/о н/о +31.1 +25.7 73 +46 +46 опасность
перегрева
1006.6 1006.4
11 17.03 З 4 н/о н/о +26.9 +24.7 88 +38 +38 очень
душно
1009.8 1009.6
14 17.03 ЮЗ 3 н/о {туман} н/о +26.2 +26.2 100 +39 +39 очень
душно
1010.5 1010.3 +34.3
17 17.03 ЮЗ 2 н/о {туман} н/о +25.7 +25.7 100 +38 +38 очень
душно
1008.9 1008.7
20 17.03 ЮЗ 1 н/о {туман} н/о +25.2 +25.2 100 +36 +36 очень
душно
1008.4 1008.2
23 17.03 ЮЗ 4 н/о {туман} н/о +29.7 +27.5 88 +48 +48 опасность
перегрева
1009.7 1009.5 0.6
02 18.03 З 5 н/о н/о +32.7 +27.7 75 +52 +52 опасность
перегрева
1008.8 1008.6 +25.1
05 18.03 СЗ 6 н/о н/о +34.7 +27.4 66 +54 +54 опасность
перегрева
1005.7 1005.5
08 18.03 З 7 н/о н/о +31.9 +25.7 70 +47 +47 опасность
перегрева
1005.4 1005.2
11 18.03 З 4 н/о н/о +28.1 +26.1 89 +42 +42 опасность
перегрева
1009.5 1009.3
14 18.03 З 2 н/о {туман} н/о +25.6 +25.4 99 +37 +37 очень
душно
1009.4 1009.2 +35.2
17 18.03 З 2 н/о {туман} н/о +25.7 +25.4 98 +37 +37 очень
душно
1007.0 1006.8
20 18.03 штиль 0 н/о н/о +24.7 +24.7 100 +35 +35 очень
душно
1007.3 1007.1
23 18.03 ЮЗ 3 н/о н/о +29.1 +27.5 91 +47 +47 опасность
перегрева
1008.5 1008.3 0.2
02 19.03 З 5 н/о н/о +32.2 +27.2 75 +51 +51 опасность
перегрева
1008.2 1008.0 +24.7
05 19.03 СЗ 3 н/о {туман} н/о +31.1 +27.9 83 +51 +51 опасность
перегрева
1006.1 1005.9 0.2
08 19.03 ЮЗ 3 н/о {туман} н/о +30.6 +25.9 76 +46 +46 опасность
перегрева
1006.1 1005.9
11 19.03 ЮЗ 3 н/о {туман} н/о +26.5 +25.8 96 +39 +39 очень
душно
1008.6 1008.4 0.6
14 19.03 ЮЗ 3 н/о н/о +25.3 +25.1 99 +36 +36 очень
душно
1008.4 1008.2 +36.2
17 19.03 ЮЗ 2 н/о н/о +24.6 +24.6 100 +34 +34 очень
душно
1006.8 1006.6

 

Местоположение метеостанции Пойнт Стьюарт (Северная территория, Австралия): широта -12.23 долгота 131.88 высота над уровнем моря 1 м.

В архиве по умолчанию представлена погода в Пойнт Стьюарт за последнюю неделю. Архивные данные за месяц целиком и за предыдущие месяцы, начиная с января 2011 года, Вы можете получить, выбрав интересующий диапазон дат из раскрывающегося списка и нажав кнопку "Ввод!".


*Определитесь, кто Вы:
робот инопланетянин человек

Внимание! Время в таблицах - всемирное. Для получения местного времени необходимо прибавить поправку, которая равна 9.5 ч.

Смотрите также архив погоды в соседних городах и на ближайших метеорологических станциях:

Погода в Милд Пойнт (Северная территория, Австралия) (75 км)
Погода в Кейп-Доне (Северная территория, Австралия) (102 км)
Погода в Дарвине (Северная территория, Австралия) (110 км)
Погода в Джаберу (Северная территория, Австралия) (121 км)
Погода в Батчелоре (Северная территория, Австралия) (130 км)
Погода на Острове Дам-ин-Мирре (Северная территория, Австралия) (170 км)
Погода в Уорруви (Северная территория, Австралия) (176 км)
Погода на Острове Маклер (Северная территория, Австралия) (178 км)
Погода на Центральном плато Арнем (Северная территория, Австралия) (179 км)
Погода в Гарден-Пойнте (Северная территория, Австралия) (184 км)

Пояснения к столбцам:

Ветер - указаны скорость ветра в м/с - средняя за 10 мин, порывы в срок и между сроками (в фигурных скобках) и направление, откуда дует ветер: С - северный, СВ - северо-восточный, В - восточный, ЮВ - юго-восточный, Ю - южный, ЮЗ - юго-западный, З - западный, СЗ - северо-западный.
Видимость - горизонтальная дальность видимости в метрах или километрах. При видимости от 1 до 10 км при отсутствии осадков обычно наблюдается дымка, при ухудшении видимости до 1 км и менее - туман. В сухую погоду видимость может ухудшаться дымом, пылью или мглою.
Явления - указаны атмосферные явления, наблюдавшиеся в срок или в последний час перед сроком; фигурными скобками обозначены явления, наблюдавшиеся между сроками (за 1-3 часа до срока); квадратными скобками обозначены град или гололедные отложения с указанием их диаметра в мм.
Облачность - указаны через наклонную черту общая и нижняя облачность в баллах и высота нижней границы облаков в метрах; квадратными скобками обозначены формы облаков: Ci - перистые, Cs - перисто-слоистые, Cc - перисто-кучевые, Ac - высококучевые, As - высокослоистые, Sc - слоисто-кучевые, Ns - слоисто-дождевые, Cu - кучевые, Cb - кучево-дождевые. Подробнее классификацию облаков см. в Атласе облаков (PDF).
T - Температура воздуха - температура, измеренная на высоте 2 м над землей.
Td - Температура точки росы - температура, при понижении до которой содержащийся в воздухе водяной пар достигнет насыщения.
f - Относительная влажность воздуха - влажноcть воздуха, измеренная на высоте 2 м над землей.
Te - Эффективная температура - температура, которую ощущает одетый по сезону человек в тени. Характеристика душности погоды. При расчете учитывается влияние влажности воздуха и скорости ветра на теплоощущения человека.
Tes - Эффективная температура на солнце - температура, которую ощущает человек, с поправкой на солнечный нагрев. Характеристика знойности погоды. Зависит от высоты солнца над горизонтом, облачности и скорости ветра. Ночью, в пасмурную погоду, а также при ветре 12 м/с и более поправка равна нулю.
P - Атмосферное давление - приведенное к уровню моря атмосферное давление.
Po - Атмосферное давление - измеренное на уровне метеостанции атмосферное давление.
Tmin - Минимальная температура - минимум температуры воздуха на высоте 2 м над землей.
Tmax - Максимальная температура - максимум температуры воздуха на высоте 2 м над землей.
R - Количество осадков - Количество выпавших осадков за период времени, мм. При наведении курсора мыши на число - период времени, за который выпало указанное количество осадков.
R24 - Количество осадков - Количество выпавших осадков за 24 часа, мм.
S - Снежный покров - Высота снежного покрова, см. При наведении курсора мыши на число - состояние снежного покрова и степень покрытия местности в баллах.